contact:dominique.lefevre@mio.osupytheas.fr, maurice.libes@osupytheas.fr
Project:EMSO Ligure-ouest http://www.emso-fr.org/EMSO-France
Sensor Aquadopp, line 13 Serial AQD14315 
DOI : "https://doi.org/10.17882/74513; https://doi.org/10.17882/83244" 
Title:EMSO Ligure Ouest : Data ligne ALBATROSS capteur AQUADOPP - deploiement 2021
Id,Date,Profondeur,Latitude,Longitude,X_East,Y_North,Z_Up,Amplitude_X,Amplitude_Y,Amplitude_Z,Batterie,SoundSpeed,Heading,Pitch,Roll,Pressure,Temperature,Speed,Direction
, , m, degrees North, degrees East, m.s-1, m.s-1,m.s-1, 1, 1, 1, Volt, m.s-1, degree, degree, degree, dbar, degree_C, m.s-1, degree
09,2022-08-12T23:30:00,2000.0,42.79,6.0312,-0.006,-0.032,-0.002,68.0,63.0,65.0,13.0,1504.7,222.9,-0.8,1.0,1992.564,13.28,0.032,190.6
09,2022-08-13T00:00:00,2000.0,42.79,6.0312,-0.009,-0.013,-0.003,67.0,63.0,68.0,13.0,1504.7,221.6,-0.9,0.9,1992.518,13.28,0.015,214.7
09,2022-08-13T00:30:00,2000.0,42.79,6.0312,-0.006,-0.02,0.022,67.0,64.0,68.0,13.0,1504.7,221.1,-0.8,0.9,1992.536,13.28,0.02,196.7
09,2022-08-13T01:00:00,2000.0,42.79,6.0312,0.0,-0.011,-0.008,68.0,66.0,69.0,13.0,1504.7,223.2,-0.7,1.0,1992.511,13.28,0.011,180.0
09,2022-08-13T02:00:00,2000.0,42.79,6.0312,0.013,-0.023,-0.007,70.0,64.0,66.0,13.0,1504.7,221.5,-0.8,0.9,1992.415,13.28,0.026,150.5
09,2022-08-13T02:30:00,2000.0,42.79,6.0312,-0.02,0.002,-0.027,68.0,63.0,67.0,13.0,1504.7,222.9,-0.8,0.9,1992.436,13.28,0.02,275.7
09,2022-08-13T03:00:00,2000.0,42.79,6.0312,-0.012,-0.006,-0.036,71.0,64.0,70.0,13.0,1504.7,224.9,-0.8,0.9,1992.493,13.28,0.013,243.4
09,2022-08-13T03:30:00,2000.0,42.79,6.0312,-0.008,-0.009,-0.007,67.0,65.0,67.0,13.0,1504.7,225.5,-0.8,0.9,1992.428,13.28,0.012,221.6
09,2022-08-13T04:00:00,2000.0,42.79,6.0312,0.005,-0.026,-0.017,72.0,70.0,66.0,13.0,1504.7,225.5,-0.8,0.9,1992.415,13.28,0.026,169.1
09,2022-08-13T04:30:00,2000.0,42.79,6.0312,0.014,-0.009,0.015,69.0,68.0,64.0,13.0,1504.7,225.9,-0.8,1.0,1992.46,13.28,0.016,122.7
09,2022-08-13T05:00:00,2000.0,42.79,6.0312,0.021,0.0,0.001,69.0,64.0,65.0,13.0,1504.7,226.6,-0.8,0.9,1992.465,13.28,0.021,90.0
09,2022-08-13T05:30:00,2000.0,42.79,6.0312,-0.008,-0.01,0.008,69.0,64.0,65.0,13.0,1504.7,225.3,-0.8,0.9,1992.479,13.28,0.012,218.7
09,2022-08-13T06:00:00,2000.0,42.79,6.0312,0.018,-0.021,0.008,70.0,66.0,69.0,13.0,1504.7,220.9,-0.8,0.9,1992.563,13.28,0.027,139.4
09,2022-08-13T06:30:00,2000.0,42.79,6.0312,0.01,-0.015,0.029,71.0,65.0,65.0,13.0,1504.7,217.6,-0.8,0.9,1992.593,13.28,0.018,146.3
09,2022-08-13T07:00:00,2000.0,42.79,6.0312,0.016,-0.017,-0.026,66.0,63.0,68.0,13.0,1504.7,217.9,-0.8,0.9,1992.553,13.28,0.023,136.7
09,2022-08-13T07:30:00,2000.0,42.79,6.0312,0.006,-0.009,-0.01,68.0,64.0,69.0,13.0,1504.7,217.2,-0.8,0.9,1992.56,13.28,0.01,146.3
09,2022-08-13T08:00:00,2000.0,42.79,6.0312,-0.007,-0.006,0.005,68.0,63.0,66.0,13.0,1504.7,214.6,-0.9,0.9,1992.544,13.28,0.009,229.4
09,2022-08-13T08:30:00,2000.0,42.79,6.0312,0.007,-0.01,-0.007,72.0,66.0,68.0,13.0,1504.7,214.6,-0.8,0.9,1992.606,13.28,0.012,145.0
09,2022-08-13T09:00:00,2000.0,42.79,6.0312,-0.012,-0.024,-0.02,70.0,65.0,65.0,13.0,1504.7,214.7,-0.8,0.9,1992.557,13.28,0.026,206.6
09,2022-08-13T09:30:00,2000.0,42.79,6.0312,0.0,0.011,0.001,67.0,65.0,67.0,13.0,1504.7,214.3,-0.8,1.0,1992.563,13.28,0.011,0.0
09,2022-08-13T10:00:00,2000.0,42.79,6.0312,-0.02,-0.026,-0.027,65.0,64.0,65.0,13.0,1504.7,215.2,-0.8,1.0,1992.569,13.28,0.032,217.6
09,2022-08-13T10:30:00,2000.0,42.79,6.0312,0.024,-0.031,0.006,69.0,70.0,68.0,13.0,1504.7,216.0,-0.8,0.9,1992.492,13.28,0.039,142.3
09,2022-08-13T11:00:00,2000.0,42.79,6.0312,0.008,-0.03,0.014,66.0,71.0,67.0,13.0,1504.7,215.6,-0.8,1.0,1992.516,13.28,0.031,165.1
09,2022-08-13T11:30:00,2000.0,42.79,6.0312,0.016,-0.004,-0.014,69.0,65.0,67.0,13.0,1504.7,216.3,-0.8,1.0,1992.482,13.28,0.016,104.0
09,2022-08-13T12:00:00,2000.0,42.79,6.0312,-0.005,0.013,-0.013,67.0,62.0,68.0,13.0,1504.7,215.6,-0.8,1.0,1992.45,13.28,0.013,339.0
09,2022-08-13T12:30:00,2000.0,42.79,6.0312,0.003,0.0,0.001,68.0,69.0,70.0,13.0,1504.7,215.1,-0.9,0.9,1992.414,13.28,0.003,90.0
09,2022-08-13T13:00:00,2000.0,42.79,6.0312,-0.012,-0.018,0.005,69.0,65.0,69.0,13.0,1504.7,215.8,-0.8,0.9,1992.441,13.28,0.021,213.7
09,2022-08-13T13:30:00,2000.0,42.79,6.0312,0.006,0.012,0.004,64.0,70.0,67.0,13.0,1504.7,216.8,-0.9,0.9,1992.393,13.28,0.013,26.6
09,2022-08-13T14:00:00,2000.0,42.79,6.0312,0.004,-0.017,0.015,69.0,65.0,68.0,13.0,1504.7,217.7,-0.8,1.0,1992.368,13.28,0.017,166.8
09,2022-08-13T15:00:00,2000.0,42.79,6.0312,0.002,-0.021,-0.016,68.0,69.0,67.0,13.0,1504.7,219.8,-0.8,1.0,1992.401,13.28,0.021,174.6
09,2022-08-13T15:30:00,2000.0,42.79,6.0312,-0.003,-0.007,0.009,66.0,64.0,67.0,13.0,1504.7,220.3,-0.9,0.9,1992.38,13.28,0.007,203.2
09,2022-08-13T16:00:00,2000.0,42.79,6.0312,0.002,-0.013,-0.004,70.0,62.0,70.0,13.0,1504.7,223.4,-0.8,0.9,1992.401,13.28,0.013,171.3
09,2022-08-13T16:30:00,2000.0,42.79,6.0312,0.003,-0.003,0.001,70.0,67.0,68.0,13.0,1504.7,225.6,-0.8,0.9,1992.435,13.28,0.004,135.0
09,2022-08-13T17:00:00,2000.0,42.79,6.0312,0.001,-0.027,-0.001,70.0,67.0,67.0,13.0,1504.7,225.7,-0.8,0.9,1992.462,13.28,0.027,177.9
09,2022-08-13T17:30:00,2000.0,42.79,6.0312,0.016,-0.005,-0.016,71.0,65.0,68.0,13.0,1504.7,225.9,-0.7,0.9,1992.528,13.28,0.016,107.4
09,2022-08-13T18:00:00,2000.0,42.79,6.0312,0.02,-0.023,0.022,68.0,61.0,65.0,13.0,1504.7,227.4,-0.8,0.9,1992.579,13.28,0.03,139.0
09,2022-08-13T18:30:00,2000.0,42.79,6.0312,-0.007,-0.017,0.027,68.0,61.0,68.0,13.0,1504.7,228.9,-0.9,0.9,1992.603,13.28,0.018,202.4
09,2022-08-13T19:00:00,2000.0,42.79,6.0312,0.003,0.002,0.012,69.0,67.0,69.0,13.0,1504.7,228.6,-0.8,0.9,1992.661,13.28,0.003,56.3
09,2022-08-13T19:30:00,2000.0,42.79,6.0312,0.011,-0.023,0.024,68.0,67.0,66.0,13.0,1504.7,228.0,-0.8,0.9,1992.675,13.28,0.025,154.4
09,2022-08-13T20:00:00,2000.0,42.79,6.0312,0.024,-0.004,-0.012,68.0,67.0,74.0,13.0,1504.7,223.5,-0.8,0.9,1992.717,13.28,0.024,99.5
09,2022-08-13T20:30:00,2000.0,42.79,6.0312,0.026,-0.024,0.006,70.0,64.0,68.0,13.0,1504.7,220.7,-0.8,1.0,1992.701,13.28,0.035,132.7
09,2022-08-13T21:00:00,2000.0,42.79,6.0312,0.005,-0.015,0.002,70.0,62.0,67.0,13.0,1504.7,221.2,-0.8,0.9,1992.739,13.28,0.015,161.6
09,2022-08-13T21:30:00,2000.0,42.79,6.0312,0.019,0.001,-0.025,71.0,66.0,68.0,13.0,1504.7,221.5,-0.7,0.9,1992.714,13.28,0.019,87.0
09,2022-08-13T22:00:00,2000.0,42.79,6.0312,0.0,-0.026,0.01,71.0,69.0,67.0,13.0,1504.7,220.0,-0.8,0.9,1992.677,13.28,0.026,180.0
09,2022-08-13T22:30:00,2000.0,42.79,6.0312,-0.005,-0.038,-0.014,68.0,64.0,68.0,13.0,1504.7,218.8,-0.8,1.0,1992.696,13.28,0.038,187.5
09,2022-08-13T23:00:00,2000.0,42.79,6.0312,-0.013,-0.031,-0.014,67.0,64.0,68.0,13.0,1504.7,219.7,-0.9,0.9,1992.62,13.28,0.033,202.7
